Location: Lancaster
(54.0470°N, 2.8020°W)
Time: 02:03:54
(UTC+01:00)

COSMOS 2428 - Visible Passes

Search period start: 24 July 2016 00:00
Search period end: 03 August 2016 00:00
Orbit: 845 x 857 km, 70.9° (Epoch: 23 July)

Date Brightness Start Highest point End Pass type
(mag) Time Alt. Az. Time Alt. Az. Time Alt. Az.
31 Jul 5.5 04:32:31 10° ESE 04:34:12 11° E 04:35:53 10° ENE visible
01 Aug 5.4 04:20:21 10° ESE 04:22:02 11° E 04:23:44 10° ENE visible
02 Aug 5.4 04:08:11 10° ESE 04:09:52 11° E 04:11:34 10° ENE visible
